Retour au catalogue

OPS 9442

DSCS 2-12

ActifMilitaireGEO
NORAD 11145·PAYLOAD·🇺🇸 United States

Lancé Dec 14, 1978 depuis Cape Canaveral Space Force Station

Loading…

TLE

FraisSource: Space-Track

Époque: Sep 14, 2026, 01:32 UTC

1 11145U 78113B   26257.06413003 -.00000127  00000-0  00000-0 0  9992
2 11145   8.0609 302.5078 0004848 207.8747 165.1067  0.98441074117946

Suivez OPS 9442 en temps réel avec AllMySat

Download on the App Store